Content
SEND FEEDBACK

Daily
Averages
Monthly
Summary
United States of America

DAYTONA BEACH, FLORIDA


Home > North America > United States > Florida
Elevation: 29 feet     Latitude: 29 11N     Longitude: 081 03W

WEATHER
 
SELECT A DAY
Number of Records: 197,925;   Date Range: 1/1/95 - 9/30/14
 
SHARE

PRINT THIS DATA

[ ← Previous Day ]
WEATHER ALMANAC - JANUARY 31, 2013
[ Next Day → ]
[ °C ]   °F
Weather ElementAverageHighLow
Temperature56.6 °F69.8 °F (1:33 am)43 °F (11:53 pm)
Dewpoint40.8 °F64.4 °F (1:33 am)26.1 °F (4:53 pm)
Humidity59.5 %94 % (1:59 am)25 % (4:53 pm)
Barometer30.09 in30.25 in (11:53 pm)29.92 in (1:33 am)
Wind Speed9.5 mph18.4 mph (2:53 am)
Wind Gust29.9 mph (2:53 am)
Weather ElementAverage
Visibility8.9 mi
Wind DirectionWNW (281.4 °)

Weather ElementTotal
Precipitation---
Heating Degree Days8.6 (Base 65)
Growing Degree Days6.4 (Base 50)
Averaged from 28 records on January 31, 2013
WEATHER CONDITIONS BREAKOUT
WIND DIRECTION BREAKOUT
WEATHER BY HOUR - JANUARY 31, 2013
[ °C ]   °F
Local TimeTemperatureDewpointHumidityBarometerVisibilityWind DirectionWind SpeedGust SpeedPrecipitationEventsConditions
1:33 AM69.8 °F64.4 °F83 %29.92 in10.0 miSW (230°)10.4 mph0.00 inRainLight Rain
1:53 AM66.0 °F63.0 °F90 %29.94 in4.0 miWest (280°)13.8 mph27.6 mph0.00 inRainRain
1:59 AM64.4 °F62.6 °F94 %29.94 in5.0 miWest (280°)17.3 mph23.0 mph0.00 inRainLight Rain
2:25 AM60.8 °F57.2 °F88 %29.96 in5.0 miWest (280°)12.7 mph24.2 mph0.00 inRainLight Rain
2:53 AM55.0 °F53.1 °F93 %29.98 in5.0 miWest (280°)18.4 mph29.9 mph0.00 inRainLight Rain
3:12 AM53.6 °F48.2 °F82 %29.98 in6.0 miWest (270°)12.7 mph20.7 mph0.00 inOvercast
3:32 AM53.6 °F48.2 °F82 %29.99 in6.0 miWest (260°)10.4 mph0.00 inOvercast
3:53 AM54.0 °F48.0 °F80 %29.98 in8.0 miWSW (250°)8.1 mph0.00 inOvercast
4:53 AM55.0 °F48.9 °F80 %30.00 in10.0 miWSW (250°)6.9 mphOvercast
5:53 AM55.9 °F46.9 °F72 %30.01 in10.0 miWNW (290°)8.1 mphOvercast
6:53 AM54.0 °F44.1 °F69 %30.06 in10.0 miWNW (290°)10.4 mphScattered Clouds
7:53 AM53.1 °F44.1 °F71 %30.09 in10.0 miNW (310°)8.1 mphScattered Clouds
8:53 AM55.0 °F44.1 °F67 %30.11 in10.0 miNW (310°)11.5 mph20.7 mphScattered Clouds
9:53 AM55.9 °F43.0 °F62 %30.13 in10.0 miWNW (290°)10.4 mphPartly Cloudy
10:53 AM57.9 °F34.0 °F41 %30.15 in10.0 miNNW (330°)12.7 mphScattered Clouds
11:53 AM57.9 °F35.1 °F42 %30.15 in10.0 miNW (320°)8.1 mph17.3 mphScattered Clouds
12:53 PM60.1 °F36.0 °F41 %30.14 in10.0 miWNW (290°)9.2 mph16.1 mphPartly Cloudy
1:53 PM62.6 °F33.8 °F34 %30.12 in10.0 miNW (310°)15.0 mphPartly Cloudy
2:53 PM62.6 °F32.0 °F32 %30.13 in10.0 miNNW (330°)12.7 mph18.4 mphPartly Cloudy
3:53 PM62.6 °F30.2 °F30 %30.13 in10.0 miWest (280°)9.2 mphPartly Cloudy
4:53 PM62.1 °F26.1 °F25 %30.15 in10.0 miWest (280°)8.1 mphPartly Cloudy
5:53 PM57.9 °F26.1 °F30 %30.15 in10.0 miWest (280°)5.8 mphPartly Cloudy
6:53 PM55.0 °F28.9 °F37 %30.18 in10.0 miNW (310°)4.6 mphPartly Cloudy
7:53 PM52.0 °F28.0 °F40 %30.21 in10.0 miNW (320°)6.9 mphClear
8:53 PM50.0 °F28.0 °F43 %30.22 in10.0 miNW (320°)5.8 mphClear
9:53 PM48.9 °F28.9 °F46 %30.23 in10.0 miNNW (330°)4.6 mphClear
10:53 PM46.9 °F28.9 °F50 %30.24 in10.0 miNW (310°)4.6 mphClear
11:53 PM43.0 °F30.9 °F62 %30.25 in10.0 miCalmClear
Hourly data recorded from KDAB, located miles away from Daytona Beach, Florida







STORIES FROM OUR PARTNERS